SCP
0 0 0 0 0 0 0 0 0 0 0 0 0 0 0 0 0 0 0 0 0 0 -0 0 0 -0 -0 0 0 -0 -0 0 0 0 0 -0 0 0 0 0 0 0 0 0 0 0 0 0 0 0 0 0 0 0
0 0 0 0 0 0 0 0 0 0 0 0 0 0 0 0 0 0 0 0 0 0 -0 -0 -0 -0 -0 -0 -0 0 0 0 0 0 0 0 0 0 0 0 0 0 0 0 0 0 0 0 0 0 0 -0 0 0
0 0 0 0 0 0 0 0 0 0 0 0 0 0 0 0 0 0 0 0 0 0 -0 0 0 -0 0 -0 0 0 0 0 0 0 0 0 0 0 0 0 0 0 0 0 0 0 0 0 0 0 0 0 0 0
0 0 0 0 0 0 0 0 0 0 0 0 0 0 0 0 0 0 0 0 0 0 0 0 -0 0 0 0 -0 -0 -0 0 0 0 0 0 0 0 0 0 0 0 0 0 0 0 0 0 0 0 0 0 0 0
0 0 0 0 0 0 0 0 0 0 0 0 0 0 0 -0 -0 0 0 0 0 0 -0 -0 -0 0 0 0 -0 -0 0 -0 0 0 0 0 0 0 0 0 0 0 0 0 0 0 0 0 0 0 0 0 0 0
0 0 0 0 0 0 0 0 0 0 0 0 -0 -0 -0 -0 -0 0 0 0 0 0 0 0 0 0 -0 0 0 0 0 0 0 0 0 0 0 0 0 0 0 0 0 0 0 0 0 0 0 -0 -0 -0 -0 -0
0 0 0 0 0 0 0 0 0 0 0 -0 -0 -0 -0 -0 0 0 0 0 0 -0 0 -0 -0 -0 0 0 -0 -0 -0 0 0 0 0 0 0 0 0 0 0 0 0 0 0 0 0 0 0 -0 0 0 0 0
0 0 0 0 0 0 0 0 0 -0 -0 -0 -0 -0 -0 -0 0 -0 0 -0 -0 0 0 -0 -0 -0 -0 0 -0 0 0 0 0 0 -0 0 0 0 0 0 0 0 0 0 0 0 0 -0 0 -0 -0 -0 0 0
0 0 0 0 0 0 0 0 0 -0 -0 -0 -0 -0 0 0 0 0 -0 -0 0 0 0 0 0 0 -0 -0 -0 0 0 0 0 0 0 0 0 0 0 0 0 0 0 0 0 0 0 -0 -0 -0 -0 -0 -0 -0
0 0 0 0 0 0 0 0 -0 -0 0 0 0 0 0 0 0 0 -0 -0 0 0 0 0 -0 0 0 -0 -0 0 0 0 0 0 -0 0 0 0 0 0 0 -0 0 0 0 -0 -0 0 0 -0 -0 -0 -0 -0
0 0 0 0 0 0 0 0 -0 -0 0 0 0 0 -0 0 0 -0 -0 -0 -0 0 0 0 -0 0 -0 0 0 0 0 0 0 0 0 0 0 0 0 -0 0 0 -0 -0 -0 -0 0 0 -0 -0 -0 -0 -0 -0
0 0 0 0 0 0 0 -0 0 0 0 -0 0 0 0 -0 -0 0 0 -0 -0 0 0 0 -0 0 -0 -0 0 0 0 0 0 0 0 0 -0 0 0 0 0 -0 -0 -0 -0 -0 -0 -0 -0 -0 -0 -0 -0 -0
0 0 0 0 0 0 -0 -0 -0 -0 0 0 0 0 0 0 -0 0 0 0 0 0 0 0 0 0 0 -0 0 0 0 0 0 0 0 0 0 0 0 0 -0 -0 -0 -0 -0 -0 -0 -0 -0 -0 -0 -0 -0 -0
0 0 0 0 0 -0 -0 0 -0 0 0 0 0 0 0 -0 0 0 0 0 0 0 -0 0 0 0 0 0 0 0 0 0 0 0 0 0 0 0 0 0 -0 -0 -0 -0 -0 -0 -0 -0 -0 -0 -0 -0 -0 -0
0 0 -0 0 0 0 0 -0 -0 0 0 0 0 0 -0 0 0 0 -0 0 0 0 -0 -0 0 0 0 0 0 0 0 0 0 0 0 0 0 0 0 0 0 -0 -0 -0 -0 -0 -0 -0 -0 -0 -0 -0 -0 -0
0 0 0 0 0 0 0 -0 0 0 0 0 0 0 0 -0 0 0 -0 -0 0 0 -0 0 0 0 0 0 0 0 0 0 0 0 0 0 0 0 0 0 0 0 0 0 0 -0 -0 -0 -0 -0 -0 -0 0 0
0 0 0 0 0 -0 -0 0 0 0 0 0 0 0 0 0 0 -0 -0 -0 -0 -0 0 -0 0 0 0 0 0 0 0 0 0 0 0 0 0 0 0 0 0 0 0 0 0 0 0 0 0 -0 -0 0 0 0
0 0 0 0 0 0 0 0 0 0 0 0 0 0 0 0 -0 -0 0 0 0 0 0 0 0 0 0 0 0 0 0 0 0 0 0 0 0 0 0 0 0 0 0 0 0 0 0 0 0 -0 -0 -0 0 0
0 0 0 0 0 0 0 0 0 0 0 0 0 0 0 0 -0 -0 0 0 0 0 0 0 0 0 0 -0 -0 -0 0 0 0 0 0 0 0 0 0 0 0 0 0 0 0 0 0 0 0 0 0 -0 0 0
-0 -0 -0 -0 0 0 0 0 0 0 0 0 0 0 0 0 0 0 -0 0 0 0 0 0 0 0 0 0 0 0 0 0 0 0 0 0 0 0 0 0 0 0 0 0 0 0 0 0 0 0 0 0 0 0
0 0 0 0 0 0 0 0 0 0 0 0 0 0 0 0 0 0 0 0 0 0 0 0 0 -0 -0 -0 -0 0 0 0 0 0 0 0 0 0 0 0 0 0 0 0 0 0 0 0 0 0 0 0 0 0
0 0 0 0 0 0 0 0 0 0 0 0 0 0 0 0 0 0 0 0 0 0 0 -0 -0 -0 0 0 0 0 0 0 0 0 0 0 0 0 0 0 0 0 0 0 0 0 0 0 0 0 0 0 0 0
0 0 0 0 0 0 0 0 0 0 0 0 0 0 0 0 0 -0 0 0 0 0 -0 -0 -0 -0 -0 0 0 0 0 -0 0 0 0 0 0 0 0 0 0 0 0 0 0 0 0 0 0 0 0 0 0 0
0 0 0 0 0 0 0 0 0 0 0 0 0 0 0 0 0 0 0 0 0 0 0 -0 0 0 0 0 0 0 0 0 0 0 0 0 0 0 0 0 -0 -0 0 0 0 0 0 0 0 0 0 0 0 0
0 0 0 0 0 0 0 0 0 0 0 0 0 0 0 0 0 0 0 0 -0 -0 -0 -0 -0 -0 0 0 0 -0 0 0 0 0 -0 0 0 0 0 0 0 0 0 0 0 0 0 0 0 0 0 0 0 0
-0 0 0 0 0 0 0 0 0 0 0 0 0 0 0 0 0 0 0 0 0 0 0 -0 -0 0 0 0 0 0 0 0 0 0 0 0 0 0 0 0 0 0 0 0 0 0 0 0 0 0 0 0 0 0
-0 0 0 0 0 0 0 0 0 0 0 0 0 0 0 0 0 0 0 0 0 -0 0 0 0 0 0 0 0 0 0 0 0 0 0 0 0 0 0 0 0 0 0 0 0 0 0 0 0 0 0 0 0 0
-0 0 0 0 0 0 0 0 0 0 0 0 0 0 0 0 0 0 0 0 0 0 0 0 0 0 0 0 0 0 0 0 0 0 0 0 0 0 0 -0 0 0 -0 -0 -0 0 -0 -0 0 0 0 0 0 0
0 0 0 0 0 0 0 0 0 0 0 0 0 0 0 0 0 0 0 0 0 0 0 0 0 0 0 0 0 0 0 0 0 0 0 0 0 0 0 0 0 0 0 0 0 0 0 0 0 0 0 0 0 0
-0 0 0 0 0 0 0 0 0 0 0 0 0 0 0 0 0 0 0 0 0 0 0 0 0 0 0 0 0 0 -0 0 -0 0 0 0 0 0 0 0 -0 0 0 0 0 0 0 0 0 0 0 0 0 0
0 0 0 0 0 0 0 0 0 0 0 0 0 0 0 0 0 0 0 0 0 0 0 0 0 0 0 0 0 0 0 0 0 0 0 0 0 0 0 0 -0 -0 0 0 0 0 0 0 0 0 0 0 0 0
0 0 0 0 0 0 0 0 0 0 0 0 0 -0 0 0 0 0 0 0 0 0 0 0 0 0 0 0 0 0 0 0 0 0 0 0 0 -0 -0 0 -0 -0 -0 -0 -0 -0 -0 -0 -0 -0 -0 -0 -0 -0
0 0 0 0 0 0 0 0 0 0 0 0 0 -0 0 0 0 0 0 0 0 0 0 0 0 0 0 0 0 -0 -0 -0 -0 0 0 0 0 0 0 0 -0 -0 -0 -0 -0 -0 -0 -0 -0 -0 -0 0 0 0
Wind_Speed_500mb
66 60 58 58 51 37 39 43 44 46 46 44 40 38 33 25 20 26 37 32 33 32 84 64 34 68 68 55 18 49 22 7 7 10 8 10 8 11 8 7 8 4 7 3 3 7 8 17 18 9 13 58 66 67
64 60 57 51 41 36 41 40 44 44 43 41 38 38 32 27 21 28 43 29 39 43 73 83 78 67 55 51 50 11 14 14 9 6 6 7 6 7 10 6 9 4 11 4 9 4 15 6 15 9 54 67 63 71
52 53 48 43 35 38 38 42 45 44 43 40 38 35 30 32 26 32 41 37 39 35 64 26 28 21 24 27 26 17 12 11 10 3 6 5 8 2 7 9 11 23 24 8 1 23 30 39 41 62 67 66 61 62
48 47 41 31 33 36 38 43 43 44 42 39 40 31 28 33 35 39 36 32 33 19 14 20 35 36 27 21 27 41 58 57 48 33 12 5 6 7 4 5 9 9 17 11 8 14 26 54 50 55 67 66 70 66
43 34 30 28 33 34 40 42 40 38 40 39 37 30 30 33 38 36 27 25 20 12 14 40 54 9 22 32 31 28 25 39 27 6 4 4 7 6 3 7 9 18 11 5 7 19 34 38 52 59 73 72 69 82
28 25 25 29 30 36 39 40 38 37 35 34 32 30 35 34 27 17 5 6 9 14 13 9 28 15 31 33 25 31 38 24 5 6 5 9 25 2 7 6 19 27 39 26 13 45 63 63 68 67 81 72 74 83
22 21 24 25 32 36 37 35 35 36 32 31 30 34 34 25 12 10 8 7 16 21 8 12 12 11 32 22 24 38 40 21 17 9 11 8 19 12 6 9 25 20 35 37 37 40 57 44 50 75 88 82 86 88
19 21 21 27 31 35 33 33 34 33 30 29 32 31 24 10 6 13 11 16 12 15 11 8 10 21 32 30 16 30 24 24 28 15 19 13 14 14 11 16 42 53 58 61 61 59 65 64 67 71 77 75 73 67
19 19 23 26 29 30 30 32 32 29 24 27 26 13 5 2 4 6 20 27 17 13 12 9 9 9 31 30 17 17 10 7 12 8 10 15 9 13 18 41 36 39 35 39 41 42 44 56 58 57 57 56 61 57
17 21 23 24 26 26 28 29 30 24 20 19 13 6 3 5 17 17 6 7 10 9 9 10 14 9 27 23 13 15 4 5 6 8 12 9 10 27 28 30 35 41 41 40 43 43 44 48 47 48 48 47 50 49
19 22 24 24 23 24 24 25 23 19 13 14 10 6 17 17 4 5 8 9 9 8 15 12 20 19 17 13 7 8 7 3 5 3 6 6 6 16 29 33 31 32 34 37 38 38 37 40 44 46 46 45 45 45
19 22 24 22 22 21 21 21 14 12 12 15 15 17 12 4 7 8 7 5 8 5 8 10 21 21 10 7 5 6 5 7 4 11 6 6 4 11 21 26 30 30 31 36 37 39 39 40 40 42 42 43 42 42
20 21 22 21 20 18 18 15 8 14 7 9 5 6 6 5 4 5 5 6 4 9 8 21 13 15 5 2 7 4 6 6 7 5 6 5 9 5 17 22 29 29 32 35 36 36 38 38 36 38 40 39 39 38
20 21 19 16 14 17 11 5 10 9 2 5 6 6 7 5 5 6 5 8 12 14 22 21 17 6 7 5 5 5 6 7 4 7 7 5 12 8 9 20 28 30 32 34 34 34 35 36 37 35 35 34 35 36
21 22 17 11 9 4 6 7 6 3 4 6 7 6 5 13 12 14 17 13 15 15 18 23 10 6 6 5 4 8 4 5 8 5 3 9 10 5 11 17 25 28 28 30 29 30 32 32 33 34 32 33 32 32
9 3 3 4 6 8 7 4 5 5 5 7 9 8 13 22 11 11 14 14 9 15 15 9 6 4 3 1 3 6 8 7 4 5 5 3 1 6 20 28 23 24 25 25 26 27 28 28 31 34 32 31 29 29
3 5 10 9 9 6 5 13 6 8 7 7 6 11 15 15 17 19 14 16 16 15 6 8 5 4 2 4 5 3 5 5 10 10 7 6 3 12 22 26 26 27 26 26 25 24 26 28 31 31 31 29 28 27
7 10 16 12 7 9 13 8 7 7 11 10 9 12 14 17 20 21 15 11 14 7 10 4 5 4 2 4 5 3 8 2 1 9 12 8 9 13 20 30 33 31 25 27 25 24 25 28 28 28 29 29 28 27
16 22 20 10 3 10 4 8 9 8 11 10 14 14 16 21 23 23 19 17 13 11 10 6 3 3 5 12 20 17 11 8 4 12 12 6 11 20 21 32 40 33 27 28 28 24 23 22 22 26 27 27 24 24
8 9 9 9 9 4 6 7 7 8 7 7 13 14 14 17 15 24 21 16 11 8 5 0 4 11 9 8 6 4 2 4 11 14 16 10 14 16 26 35 45 39 31 31 28 26 23 21 21 23 25 24 23 23
6 9 8 8 4 8 7 4 7 9 11 10 8 11 13 18 26 17 11 11 9 4 5 13 10 7 8 9 8 5 3 2 1 1 6 20 19 22 21 30 40 35 29 34 30 28 24 22 23 24 25 23 21 20
8 14 9 4 6 5 9 11 8 9 9 10 15 16 12 11 8 7 8 6 4 9 7 8 12 12 7 10 8 7 6 2 6 8 9 24 26 28 26 26 37 46 31 27 27 27 23 22 22 23 25 23 22 22
10 12 6 7 5 7 11 11 8 9 6 6 9 7 7 6 7 5 5 6 6 6 8 9 9 10 11 10 10 11 10 7 7 12 18 18 15 24 20 28 39 36 28 24 23 23 22 25 28 25 25 24 24 21
15 4 5 8 13 8 6 9 12 8 6 8 6 5 3 2 5 3 4 7 8 8 11 8 5 7 9 8 6 7 8 11 13 9 20 24 24 24 25 29 31 26 22 23 24 25 24 27 29 28 26 26 23 22
4 6 8 9 11 8 7 6 11 9 5 8 5 3 2 4 4 4 6 7 12 12 11 10 6 8 5 10 5 4 5 4 7 8 11 15 28 18 23 24 21 17 19 23 25 26 27 28 29 27 27 27 25 23
4 11 9 9 8 9 6 6 7 7 6 6 7 2 2 4 4 6 6 6 11 12 13 14 12 9 6 1 5 5 4 5 8 9 10 13 16 37 29 25 24 16 18 20 22 26 29 27 27 26 26 26 29 26
7 9 12 11 8 9 6 10 14 10 8 5 2 3 4 4 3 6 8 8 6 5 9 13 14 18 9 2 4 7 4 5 6 7 9 12 13 16 31 31 24 21 25 23 24 25 26 25 25 25 24 24 27 30
8 7 7 14 10 9 7 8 5 2 2 4 0 4 6 7 4 4 7 5 5 9 13 15 14 13 11 4 5 16 8 4 5 6 8 10 11 16 21 17 13 22 21 21 22 23 25 26 25 25 27 28 27 28
9 11 8 11 12 10 7 2 4 7 8 7 6 4 3 4 3 2 4 7 8 11 11 10 14 11 10 10 7 12 15 5 3 5 12 9 14 17 16 17 15 15 18 18 23 30 23 24 25 28 30 29 27 24
12 15 9 8 8 5 1 4 3 1 3 5 5 3 8 3 3 1 6 8 11 11 11 11 10 12 7 8 12 7 5 17 15 9 14 18 23 38 27 19 16 13 13 14 12 15 20 23 29 28 27 28 27 25
5 10 7 6 4 4 6 4 7 5 6 3 10 12 11 9 8 7 6 9 10 10 12 14 12 13 10 5 4 1 9 7 7 9 12 10 7 16 16 16 21 21 19 17 16 14 14 17 19 23 27 29 27 27
10 10 6 6 6 6 5 4 4 3 8 11 13 21 18 17 9 0 5 6 8 8 8 11 13 15 15 10 14 4 16 14 9 7 9 4 7 16 18 14 17 20 20 20 19 16 18 17 18 22 25 28 28 27
11 11 8 5 4 2 1 5 7 8 18 17 18 25 17 10 5 5 3 1 2 4 5 4 6 8 9 9 12 13 17 13 3 16 9 4 6 3 15 18 17 23 26 24 23 25 22 23 24 22 25 26 27 27
Wind_Direction_500mb
299 307 306 301 292 285 291 300 313 319 321 320 318 318 316 317 313 311 301 298 282 280 288 288 295 302 299 295 300 305 333 47 304 341 340 349 308 339 303 343 327 333 291 48 266 59 44 5 339 143 114 122 123 129
304 305 303 294 283 281 292 304 310 315 316 316 316 315 310 313 312 311 303 296 289 274 276 293 291 283 272 277 285 288 260 295 275 312 9 312 289 299 326 342 326 17 22 48 40 292 254 50 84 255 128 124 117 118
299 300 297 284 277 287 297 307 312 317 315 316 316 312 308 310 312 310 300 299 301 292 306 294 313 338 307 281 283 261 276 246 231 259 292 280 280 312 324 21 334 353 9 33 336 3 37 66 63 68 92 101 111 115
301 299 287 281 282 291 302 309 317 315 313 317 313 307 307 310 312 309 296 293 291 296 285 298 316 313 314 309 289 266 271 278 275 284 235 262 275 282 17 35 30 339 304 17 351 342 35 44 72 90 96 103 108 110
300 293 286 277 284 296 304 311 315 310 314 315 312 307 308 312 313 307 304 280 266 266 304 302 311 19 330 332 314 318 324 305 275 252 242 257 245 282 36 47 34 330 332 14 34 353 72 66 79 94 95 98 104 109
291 280 271 281 295 300 308 313 310 312 316 315 311 309 310 313 309 321 290 187 241 298 307 300 314 308 335 345 344 4 352 321 272 273 287 359 18 22 38 53 355 20 62 66 65 74 85 87 88 92 95 101 105 107
268 267 278 290 297 307 310 311 314 317 318 315 310 311 311 305 278 228 312 279 300 311 271 282 288 327 358 2 3 4 356 358 2 347 28 25 18 49 52 34 341 82 73 72 68 79 78 88 93 101 104 103 107 105
253 269 281 295 306 309 314 315 318 320 318 316 316 313 307 293 294 280 247 267 275 300 258 278 292 331 356 1 12 356 339 349 14 16 13 9 18 40 54 106 75 76 83 80 79 85 97 104 104 99 99 102 103 105
257 270 288 298 305 310 315 318 322 321 322 326 323 326 24 28 246 264 274 286 273 262 305 281 315 327 336 0 19 347 336 347 325 48 41 10 18 42 40 67 91 92 96 108 97 95 106 102 103 105 106 106 106 109
264 279 289 301 301 312 314 319 323 328 340 4 4 284 258 261 283 298 278 217 214 222 231 266 302 310 328 353 31 337 326 336 15 39 92 34 51 73 76 58 76 93 96 99 96 96 98 97 99 99 100 104 106 108
277 290 298 296 299 310 317 322 327 333 18 356 325 295 296 296 288 256 263 228 211 232 203 255 334 314 331 356 10 292 306 348 9 305 108 49 35 6 35 69 77 83 91 94 98 100 100 104 105 105 105 107 109 111
288 297 294 292 295 310 319 319 318 354 337 301 302 298 304 277 237 241 247 223 225 282 339 336 321 333 315 351 235 248 284 304 47 348 56 76 18 338 62 76 87 91 95 97 99 102 103 103 105 107 108 109 110 112
292 294 294 286 291 305 309 303 312 335 336 290 299 268 228 254 268 256 294 298 304 317 345 336 331 316 311 292 269 320 334 35 290 40 66 53 78 71 73 88 94 99 100 100 101 102 103 105 106 110 113 113 113 114
288 293 284 279 288 295 290 264 318 338 329 269 253 264 255 235 244 267 277 299 314 316 326 316 322 284 311 327 354 293 51 339 43 32 73 86 70 74 111 117 111 106 107 108 109 111 111 112 113 114 116 118 117 116
289 288 283 270 270 259 286 297 299 273 250 264 252 247 278 283 291 276 277 297 311 302 311 302 237 271 314 348 8 33 23 34 32 75 62 27 43 114 139 139 127 119 116 113 115 116 118 119 119 118 119 120 122 122
288 288 270 186 255 292 292 275 176 187 254 249 243 267 286 282 285 287 274 316 327 322 311 281 321 261 167 103 16 29 315 46 48 98 150 317 148 175 159 163 151 139 132 126 122 122 125 127 128 128 127 126 127 128
355 183 268 279 296 278 233 162 185 224 246 235 258 290 306 299 286 285 313 299 322 321 343 309 297 28 304 173 115 53 32 32 56 122 109 135 182 172 168 163 159 162 151 142 135 132 134 135 133 132 132 133 132 129
160 285 292 288 297 146 149 178 245 241 245 244 260 274 269 261 274 277 274 297 299 287 321 313 304 265 279 34 44 87 83 359 9 120 122 138 168 169 163 180 165 165 167 158 149 142 142 144 143 142 142 140 139 136
214 216 252 252 213 172 184 220 228 263 253 246 243 249 258 270 263 260 275 276 267 290 288 270 238 34 9 16 12 20 22 359 285 135 116 136 158 164 168 177 170 168 166 164 160 157 155 155 154 152 152 152 152 149
210 220 215 190 182 145 238 216 222 262 269 259 253 258 260 259 254 256 255 259 259 271 260 204 48 26 7 358 319 273 69 352 288 127 145 145 156 170 175 176 178 161 173 170 167 163 161 161 159 163 163 162 161 161
104 190 163 148 160 241 262 258 239 244 274 273 269 265 272 261 250 255 261 232 228 238 47 51 36 40 23 7 354 331 305 285 185 83 136 144 163 178 148 170 175 168 172 172 167 170 170 171 168 168 166 165 169 170
199 176 157 196 235 235 256 236 242 270 264 257 264 230 256 253 241 222 226 202 55 53 42 23 26 12 19 25 16 28 14 303 226 208 214 155 156 160 155 168 168 169 168 175 178 174 172 166 170 172 168 171 170 173
145 157 196 202 240 242 264 203 248 225 227 252 244 231 217 225 214 202 218 83 85 37 30 43 36 40 52 59 52 45 54 76 102 125 153 158 166 150 150 168 160 156 168 177 181 181 177 178 177 172 172 169 168 175
157 162 220 218 211 255 229 219 228 235 224 252 233 233 149 179 238 266 80 71 57 52 59 48 52 86 85 71 50 40 71 76 99 111 159 148 155 155 157 157 168 178 182 177 179 178 179 178 174 173 172 171 176 175
211 215 199 252 225 227 239 237 228 223 219 241 238 187 180 224 233 171 87 84 72 67 56 43 57 32 59 90 92 109 94 100 115 130 137 168 181 161 175 180 180 182 183 179 177 176 175 174 174 178 180 184 185 186
246 201 193 222 222 220 197 244 219 247 243 218 183 212 261 247 231 82 85 90 71 63 40 32 40 40 18 25 114 79 79 104 127 147 176 184 201 197 174 170 168 158 161 176 182 179 179 180 185 188 193 197 198 199
241 229 212 230 232 240 264 254 246 259 251 217 123 201 243 210 118 88 116 80 93 31 11 7 355 350 17 213 189 177 139 122 63 77 145 168 164 177 189 191 193 205 207 193 192 193 192 191 194 200 206 209 213 212
257 268 233 206 223 222 232 258 255 332 27 21 247 52 355 24 62 88 63 41 33 5 1 2 350 2 7 15 214 190 169 103 150 137 137 141 162 166 175 184 192 180 184 195 201 206 214 217 216 218 219 219 216 217
231 212 235 219 219 241 239 285 29 29 1 23 16 41 57 266 181 107 96 33 13 5 7 31 27 44 38 56 84 188 180 189 238 226 201 194 188 184 202 207 206 201 215 223 237 232 235 231 232 229 221 215 213 211
208 191 216 228 229 219 272 14 92 102 57 81 110 82 145 191 115 137 83 58 44 37 47 37 32 29 56 111 77 58 223 221 236 261 261 244 261 238 216 204 216 219 215 211 216 229 234 232 222 209 202 202 206 208
191 207 239 237 273 289 298 287 282 270 233 131 153 153 170 161 126 96 54 35 44 43 36 39 42 18 25 56 279 14 160 113 73 326 252 243 182 158 174 220 223 224 221 213 205 211 212 204 206 205 206 208 213 212
194 203 213 222 240 239 205 188 202 169 164 180 191 219 233 214 156 69 44 36 71 53 45 39 31 27 21 33 22 278 229 195 91 19 82 158 257 224 224 228 219 215 214 209 209 209 209 206 212 213 214 216 221 225
180 183 202 251 272 241 229 262 229 195 181 197 213 214 206 194 157 171 68 96 81 35 12 7 21 6 8 18 25 35 32 41 261 245 232 161 102 50 226 228 238 227 219 209 221 224 230 233 226 220 219 219 222 228
Wind_Speed_850mb
66 60 58 58 51 37 39 43 44 46 46 44 40 38 33 25 20 26 37 32 33 32 84 64 34 68 68 55 18 49 22 7 7 10 8 10 8 11 8 7 8 4 7 3 3 7 8 17 18 9 13 58 66 67
64 60 57 51 41 36 41 40 44 44 43 41 38 38 32 27 21 28 43 29 39 43 73 83 78 67 55 51 50 11 14 14 9 6 6 7 6 7 10 6 9 4 11 4 9 4 15 6 15 9 54 67 63 71
52 53 48 43 35 38 38 42 45 44 43 40 38 35 30 32 26 32 41 37 39 35 64 26 28 21 24 27 26 17 12 11 10 3 6 5 8 2 7 9 11 23 24 8 1 23 30 39 41 62 67 66 61 62
48 47 41 31 33 36 38 43 43 44 42 39 40 31 28 33 35 39 36 32 33 19 14 20 35 36 27 21 27 41 58 57 48 33 12 5 6 7 4 5 9 9 17 11 8 14 26 54 50 55 67 66 70 66
43 34 30 28 33 34 40 42 40 38 40 39 37 30 30 33 38 36 27 25 20 12 14 40 54 9 22 32 31 28 25 39 27 6 4 4 7 6 3 7 9 18 11 5 7 19 34 38 52 59 73 72 69 82
28 25 25 29 30 36 39 40 38 37 35 34 32 30 35 34 27 17 5 6 9 14 13 9 28 15 31 33 25 31 38 24 5 6 5 9 25 2 7 6 19 27 39 26 13 45 63 63 68 67 81 72 74 83
22 21 24 25 32 36 37 35 35 36 32 31 30 34 34 25 12 10 8 7 16 21 8 12 12 11 32 22 24 38 40 21 17 9 11 8 19 12 6 9 25 20 35 37 37 40 57 44 50 75 88 82 86 88
19 21 21 27 31 35 33 33 34 33 30 29 32 31 24 10 6 13 11 16 12 15 11 8 10 21 32 30 16 30 24 24 28 15 19 13 14 14 11 16 42 53 58 61 61 59 65 64 67 71 77 75 73 67
19 19 23 26 29 30 30 32 32 29 24 27 26 13 5 2 4 6 20 27 17 13 12 9 9 9 31 30 17 17 10 7 12 8 10 15 9 13 18 41 36 39 35 39 41 42 44 56 58 57 57 56 61 57
17 21 23 24 26 26 28 29 30 24 20 19 13 6 3 5 17 17 6 7 10 9 9 10 14 9 27 23 13 15 4 5 6 8 12 9 10 27 28 30 35 41 41 40 43 43 44 48 47 48 48 47 50 49
19 22 24 24 23 24 24 25 23 19 13 14 10 6 17 17 4 5 8 9 9 8 15 12 20 19 17 13 7 8 7 3 5 3 6 6 6 16 29 33 31 32 34 37 38 38 37 40 44 46 46 45 45 45
19 22 24 22 22 21 21 21 14 12 12 15 15 17 12 4 7 8 7 5 8 5 8 10 21 21 10 7 5 6 5 7 4 11 6 6 4 11 21 26 30 30 31 36 37 39 39 40 40 42 42 43 42 42
20 21 22 21 20 18 18 15 8 14 7 9 5 6 6 5 4 5 5 6 4 9 8 21 13 15 5 2 7 4 6 6 7 5 6 5 9 5 17 22 29 29 32 35 36 36 38 38 36 38 40 39 39 38
20 21 19 16 14 17 11 5 10 9 2 5 6 6 7 5 5 6 5 8 12 14 22 21 17 6 7 5 5 5 6 7 4 7 7 5 12 8 9 20 28 30 32 34 34 34 35 36 37 35 35 34 35 36
21 22 17 11 9 4 6 7 6 3 4 6 7 6 5 13 12 14 17 13 15 15 18 23 10 6 6 5 4 8 4 5 8 5 3 9 10 5 11 17 25 28 28 30 29 30 32 32 33 34 32 33 32 32
9 3 3 4 6 8 7 4 5 5 5 7 9 8 13 22 11 11 14 14 9 15 15 9 6 4 3 1 3 6 8 7 4 5 5 3 1 6 20 28 23 24 25 25 26 27 28 28 31 34 32 31 29 29
3 5 10 9 9 6 5 13 6 8 7 7 6 11 15 15 17 19 14 16 16 15 6 8 5 4 2 4 5 3 5 5 10 10 7 6 3 12 22 26 26 27 26 26 25 24 26 28 31 31 31 29 28 27
7 10 16 12 7 9 13 8 7 7 11 10 9 12 14 17 20 21 15 11 14 7 10 4 5 4 2 4 5 3 8 2 1 9 12 8 9 13 20 30 33 31 25 27 25 24 25 28 28 28 29 29 28 27
16 22 20 10 3 10 4 8 9 8 11 10 14 14 16 21 23 23 19 17 13 11 10 6 3 3 5 12 20 17 11 8 4 12 12 6 11 20 21 32 40 33 27 28 28 24 23 22 22 26 27 27 24 24
8 9 9 9 9 4 6 7 7 8 7 7 13 14 14 17 15 24 21 16 11 8 5 0 4 11 9 8 6 4 2 4 11 14 16 10 14 16 26 35 45 39 31 31 28 26 23 21 21 23 25 24 23 23
6 9 8 8 4 8 7 4 7 9 11 10 8 11 13 18 26 17 11 11 9 4 5 13 10 7 8 9 8 5 3 2 1 1 6 20 19 22 21 30 40 35 29 34 30 28 24 22 23 24 25 23 21 20
8 14 9 4 6 5 9 11 8 9 9 10 15 16 12 11 8 7 8 6 4 9 7 8 12 12 7 10 8 7 6 2 6 8 9 24 26 28 26 26 37 46 31 27 27 27 23 22 22 23 25 23 22 22
10 12 6 7 5 7 11 11 8 9 6 6 9 7 7 6 7 5 5 6 6 6 8 9 9 10 11 10 10 11 10 7 7 12 18 18 15 24 20 28 39 36 28 24 23 23 22 25 28 25 25 24 24 21
15 4 5 8 13 8 6 9 12 8 6 8 6 5 3 2 5 3 4 7 8 8 11 8 5 7 9 8 6 7 8 11 13 9 20 24 24 24 25 29 31 26 22 23 24 25 24 27 29 28 26 26 23 22
4 6 8 9 11 8 7 6 11 9 5 8 5 3 2 4 4 4 6 7 12 12 11 10 6 8 5 10 5 4 5 4 7 8 11 15 28 18 23 24 21 17 19 23 25 26 27 28 29 27 27 27 25 23
4 11 9 9 8 9 6 6 7 7 6 6 7 2 2 4 4 6 6 6 11 12 13 14 12 9 6 1 5 5 4 5 8 9 10 13 16 37 29 25 24 16 18 20 22 26 29 27 27 26 26 26 29 26
7 9 12 11 8 9 6 10 14 10 8 5 2 3 4 4 3 6 8 8 6 5 9 13 14 18 9 2 4 7 4 5 6 7 9 12 13 16 31 31 24 21 25 23 24 25 26 25 25 25 24 24 27 30
8 7 7 14 10 9 7 8 5 2 2 4 0 4 6 7 4 4 7 5 5 9 13 15 14 13 11 4 5 16 8 4 5 6 8 10 11 16 21 17 13 22 21 21 22 23 25 26 25 25 27 28 27 28
9 11 8 11 12 10 7 2 4 7 8 7 6 4 3 4 3 2 4 7 8 11 11 10 14 11 10 10 7 12 15 5 3 5 12 9 14 17 16 17 15 15 18 18 23 30 23 24 25 28 30 29 27 24
12 15 9 8 8 5 1 4 3 1 3 5 5 3 8 3 3 1 6 8 11 11 11 11 10 12 7 8 12 7 5 17 15 9 14 18 23 38 27 19 16 13 13 14 12 15 20 23 29 28 27 28 27 25
5 10 7 6 4 4 6 4 7 5 6 3 10 12 11 9 8 7 6 9 10 10 12 14 12 13 10 5 4 1 9 7 7 9 12 10 7 16 16 16 21 21 19 17 16 14 14 17 19 23 27 29 27 27
10 10 6 6 6 6 5 4 4 3 8 11 13 21 18 17 9 0 5 6 8 8 8 11 13 15 15 10 14 4 16 14 9 7 9 4 7 16 18 14 17 20 20 20 19 16 18 17 18 22 25 28 28 27
11 11 8 5 4 2 1 5 7 8 18 17 18 25 17 10 5 5 3 1 2 4 5 4 6 8 9 9 12 13 17 13 3 16 9 4 6 3 15 18 17 23 26 24 23 25 22 23 24 22 25 26 27 27
Wind_Direction_850mb
299 307 306 301 292 285 291 300 313 319 321 320 318 318 316 317 313 311 301 298 282 280 288 288 295 302 299 295 300 305 333 47 304 341 340 349 308 339 303 343 327 333 291 48 266 59 44 5 339 143 114 122 123 129
304 305 303 294 283 281 292 304 310 315 316 316 316 315 310 313 312 311 303 296 289 274 276 293 291 283 272 277 285 288 260 295 275 312 9 312 289 299 326 342 326 17 22 48 40 292 254 50 84 255 128 124 117 118
299 300 297 284 277 287 297 307 312 317 315 316 316 312 308 310 312 310 300 299 301 292 306 294 313 338 307 281 283 261 276 246 231 259 292 280 280 312 324 21 334 353 9 33 336 3 37 66 63 68 92 101 111 115
301 299 287 281 282 291 302 309 317 315 313 317 313 307 307 310 312 309 296 293 291 296 285 298 316 313 314 309 289 266 271 278 275 284 235 262 275 282 17 35 30 339 304 17 351 342 35 44 72 90 96 103 108 110
300 293 286 277 284 296 304 311 315 310 314 315 312 307 308 312 313 307 304 280 266 266 304 302 311 19 330 332 314 318 324 305 275 252 242 257 245 282 36 47 34 330 332 14 34 353 72 66 79 94 95 98 104 109
291 280 271 281 295 300 308 313 310 312 316 315 311 309 310 313 309 321 290 187 241 298 307 300 314 308 335 345 344 4 352 321 272 273 287 359 18 22 38 53 355 20 62 66 65 74 85 87 88 92 95 101 105 107
268 267 278 290 297 307 310 311 314 317 318 315 310 311 311 305 278 228 312 279 300 311 271 282 288 327 358 2 3 4 356 358 2 347 28 25 18 49 52 34 341 82 73 72 68 79 78 88 93 101 104 103 107 105
253 269 281 295 306 309 314 315 318 320 318 316 316 313 307 293 294 280 247 267 275 300 258 278 292 331 356 1 12 356 339 349 14 16 13 9 18 40 54 106 75 76 83 80 79 85 97 104 104 99 99 102 103 105
257 270 288 298 305 310 315 318 322 321 322 326 323 326 24 28 246 264 274 286 273 262 305 281 315 327 336 0 19 347 336 347 325 48 41 10 18 42 40 67 91 92 96 108 97 95 106 102 103 105 106 106 106 109
264 279 289 301 301 312 314 319 323 328 340 4 4 284 258 261 283 298 278 217 214 222 231 266 302 310 328 353 31 337 326 336 15 39 92 34 51 73 76 58 76 93 96 99 96 96 98 97 99 99 100 104 106 108
277 290 298 296 299 310 317 322 327 333 18 356 325 295 296 296 288 256 263 228 211 232 203 255 334 314 331 356 10 292 306 348 9 305 108 49 35 6 35 69 77 83 91 94 98 100 100 104 105 105 105 107 109 111
288 297 294 292 295 310 319 319 318 354 337 301 302 298 304 277 237 241 247 223 225 282 339 336 321 333 315 351 235 248 284 304 47 348 56 76 18 338 62 76 87 91 95 97 99 102 103 103 105 107 108 109 110 112
292 294 294 286 291 305 309 303 312 335 336 290 299 268 228 254 268 256 294 298 304 317 345 336 331 316 311 292 269 320 334 35 290 40 66 53 78 71 73 88 94 99 100 100 101 102 103 105 106 110 113 113 113 114
288 293 284 279 288 295 290 264 318 338 329 269 253 264 255 235 244 267 277 299 314 316 326 316 322 284 311 327 354 293 51 339 43 32 73 86 70 74 111 117 111 106 107 108 109 111 111 112 113 114 116 118 117 116
289 288 283 270 270 259 286 297 299 273 250 264 252 247 278 283 291 276 277 297 311 302 311 302 237 271 314 348 8 33 23 34 32 75 62 27 43 114 139 139 127 119 116 113 115 116 118 119 119 118 119 120 122 122
288 288 270 186 255 292 292 275 176 187 254 249 243 267 286 282 285 287 274 316 327 322 311 281 321 261 167 103 16 29 315 46 48 98 150 317 148 175 159 163 151 139 132 126 122 122 125 127 128 128 127 126 127 128
355 183 268 279 296 278 233 162 185 224 246 235 258 290 306 299 286 285 313 299 322 321 343 309 297 28 304 173 115 53 32 32 56 122 109 135 182 172 168 163 159 162 151 142 135 132 134 135 133 132 132 133 132 129
160 285 292 288 297 146 149 178 245 241 245 244 260 274 269 261 274 277 274 297 299 287 321 313 304 265 279 34 44 87 83 359 9 120 122 138 168 169 163 180 165 165 167 158 149 142 142 144 143 142 142 140 139 136
214 216 252 252 213 172 184 220 228 263 253 246 243 249 258 270 263 260 275 276 267 290 288 270 238 34 9 16 12 20 22 359 285 135 116 136 158 164 168 177 170 168 166 164 160 157 155 155 154 152 152 152 152 149
210 220 215 190 182 145 238 216 222 262 269 259 253 258 260 259 254 256 255 259 259 271 260 204 48 26 7 358 319 273 69 352 288 127 145 145 156 170 175 176 178 161 173 170 167 163 161 161 159 163 163 162 161 161
104 190 163 148 160 241 262 258 239 244 274 273 269 265 272 261 250 255 261 232 228 238 47 51 36 40 23 7 354 331 305 285 185 83 136 144 163 178 148 170 175 168 172 172 167 170 170 171 168 168 166 165 169 170
199 176 157 196 235 235 256 236 242 270 264 257 264 230 256 253 241 222 226 202 55 53 42 23 26 12 19 25 16 28 14 303 226 208 214 155 156 160 155 168 168 169 168 175 178 174 172 166 170 172 168 171 170 173
145 157 196 202 240 242 264 203 248 225 227 252 244 231 217 225 214 202 218 83 85 37 30 43 36 40 52 59 52 45 54 76 102 125 153 158 166 150 150 168 160 156 168 177 181 181 177 178 177 172 172 169 168 175
157 162 220 218 211 255 229 219 228 235 224 252 233 233 149 179 238 266 80 71 57 52 59 48 52 86 85 71 50 40 71 76 99 111 159 148 155 155 157 157 168 178 182 177 179 178 179 178 174 173 172 171 176 175
211 215 199 252 225 227 239 237 228 223 219 241 238 187 180 224 233 171 87 84 72 67 56 43 57 32 59 90 92 109 94 100 115 130 137 168 181 161 175 180 180 182 183 179 177 176 175 174 174 178 180 184 185 186
246 201 193 222 222 220 197 244 219 247 243 218 183 212 261 247 231 82 85 90 71 63 40 32 40 40 18 25 114 79 79 104 127 147 176 184 201 197 174 170 168 158 161 176 182 179 179 180 185 188 193 197 198 199
241 229 212 230 232 240 264 254 246 259 251 217 123 201 243 210 118 88 116 80 93 31 11 7 355 350 17 213 189 177 139 122 63 77 145 168 164 177 189 191 193 205 207 193 192 193 192 191 194 200 206 209 213 212
257 268 233 206 223 222 232 258 255 332 27 21 247 52 355 24 62 88 63 41 33 5 1 2 350 2 7 15 214 190 169 103 150 137 137 141 162 166 175 184 192 180 184 195 201 206 214 217 216 218 219 219 216 217
231 212 235 219 219 241 239 285 29 29 1 23 16 41 57 266 181 107 96 33 13 5 7 31 27 44 38 56 84 188 180 189 238 226 201 194 188 184 202 207 206 201 215 223 237 232 235 231 232 229 221 215 213 211
208 191 216 228 229 219 272 14 92 102 57 81 110 82 145 191 115 137 83 58 44 37 47 37 32 29 56 111 77 58 223 221 236 261 261 244 261 238 216 204 216 219 215 211 216 229 234 232 222 209 202 202 206 208
191 207 239 237 273 289 298 287 282 270 233 131 153 153 170 161 126 96 54 35 44 43 36 39 42 18 25 56 279 14 160 113 73 326 252 243 182 158 174 220 223 224 221 213 205 211 212 204 206 205 206 208 213 212
194 203 213 222 240 239 205 188 202 169 164 180 191 219 233 214 156 69 44 36 71 53 45 39 31 27 21 33 22 278 229 195 91 19 82 158 257 224 224 228 219 215 214 209 209 209 209 206 212 213 214 216 221 225
180 183 202 251 272 241 229 262 229 195 181 197 213 214 206 194 157 171 68 96 81 35 12 7 21 6 8 18 25 35 32 41 261 245 232 161 102 50 226 228 238 227 219 209 221 224 230 233 226 220 219 219 222 228